THY172 LTFM-VTSP

Flight info

Callsign THY172
Flight time 8h 34m
Altitude 37000
Route EKAWE UT643 GAKSU UT310 SIN DCT REBLO DCT PEMAN N161 EDATA M11 LUSAL N701 BAKUV DCT NAMAS N35 RODAR A909 TUNEK B143 KRS A240 INRAK B449 ZAMIR/N0485F390 B449 RANAH L750 ZB G202 RK P628 IBANI L510 GURVI T1 BBS L759 KASVI/N0485F410 L759 SATVA SATVA1D
Aircraft A359/H-SDE2E3GHIJ3J4J5LM1ORWXY/LB1D1

Departure

Time 2026-05-04 11:02
Airport İstanbul Airport (LTFM)

Arrival

Time 2026-05-04 19:36
Airport Phuket International Airport (VTSP)
Time Latitude Longitude Altitude Speed Heading
2026-05-04 08:42 41.26483 28.74367 335 ft 0 kts 269°
2026-05-04 10:51 41.26472 28.74474 335 ft 4 kts 351°
2026-05-04 10:52 41.26447 28.74475 335 ft 2 kts 359°
2026-05-04 10:52 41.26445 28.74475 335 ft 0 kts 359°
2026-05-04 10:54 41.26446 28.74475 340 ft 1 kts 359°
2026-05-04 10:56 41.26954 28.74466 335 ft 7 kts 18°
2026-05-04 10:56 41.26980 28.74523 335 ft 6 kts 91°
2026-05-04 10:56 41.26973 28.74623 335 ft 26 kts 91°
2026-05-04 10:57 41.26978 28.74913 337 ft 32 kts 89°
2026-05-04 10:57 41.26981 28.75151 337 ft 13 kts 89°
2026-05-04 10:57 41.26982 28.75278 337 ft 14 kts 89°
2026-05-04 10:57 41.26947 28.75382 335 ft 7 kts 167°
2026-05-04 10:58 41.26889 28.75380 336 ft 9 kts 181°
2026-05-04 10:58 41.26817 28.75378 336 ft 11 kts 180°
2026-05-04 10:58 41.26792 28.75379 336 ft 0 kts 178°
2026-05-04 10:58 41.26748 28.75381 336 ft 8 kts 178°
2026-05-04 10:59 41.26637 28.75383 335 ft 34 kts 179°
2026-05-04 10:59 41.26465 28.75386 336 ft 18 kts 178°
2026-05-04 10:59 41.26412 28.75388 337 ft 5 kts 179°
2026-05-04 10:59 41.26356 28.75404 337 ft 10 kts 147°
2026-05-04 11:00 41.26337 28.75487 337 ft 10 kts 92°
2026-05-04 11:01 41.28319 28.75628 385 ft 157 kts 357°
2026-05-04 11:02 41.29433 28.75588 933 ft 159 kts 355°
2026-05-04 11:02 41.30547 28.75785 1541 ft 173 kts 24°
2026-05-04 11:05 41.52092 28.80858 10206 ft 258 kts 356°
2026-05-04 11:06 41.53935 28.80630 10537 ft 274 kts 356°
2026-05-04 11:06 41.55887 28.80390 10816 ft 291 kts 356°
2026-05-04 11:06 41.57961 28.80118 11098 ft 306 kts 355°
2026-05-04 11:06 41.60146 28.80013 11358 ft 321 kts
2026-05-04 11:08 41.73245 28.93449 15128 ft 363 kts 50°
2026-05-04 11:10 41.81182 29.15754 18777 ft 391 kts 63°
2026-05-04 11:12 41.89252 29.39311 22533 ft 404 kts 63°
2026-05-04 11:12 41.90519 29.42698 23019 ft 406 kts 58°
2026-05-04 11:12 41.92169 29.45783 23502 ft 407 kts 50°
2026-05-04 11:12 41.93998 29.48637 23904 ft 410 kts 48°
2026-05-04 11:13 41.95894 29.51522 24308 ft 412 kts 48°
2026-05-04 11:13 41.97797 29.54418 24712 ft 414 kts 48°
2026-05-04 11:13 41.99710 29.57340 25140 ft 416 kts 49°
2026-05-04 11:13 42.01603 29.60313 25547 ft 419 kts 51°
2026-05-04 11:14 42.02200 29.61369 25680 ft 419 kts 53°
2026-05-04 11:16 42.04078 29.98790 28530 ft 431 kts 91°
2026-05-04 11:16 42.03792 30.02833 28682 ft 438 kts 91°
2026-05-04 11:16 42.03406 30.06934 28828 ft 447 kts 96°
2026-05-04 11:17 42.02625 30.11019 29138 ft 455 kts 104°
2026-05-04 11:17 42.01366 30.14969 29473 ft 464 kts 112°
2026-05-04 11:19 41.87806 30.39993 31826 ft 472 kts 121°
2026-05-04 11:19 41.85836 30.43516 32177 ft 471 kts 121°
2026-05-04 11:19 41.83905 30.46982 32516 ft 469 kts 121°
2026-05-04 11:19 41.81956 30.50488 32829 ft 470 kts 121°
2026-05-04 11:20 41.80171 30.54147 32975 ft 467 kts 114°
2026-05-04 11:20 41.78763 30.58042 33276 ft 460 kts 107°
2026-05-04 11:20 41.77792 30.62095 33603 ft 454 kts 99°
2026-05-04 11:20 41.77283 30.66236 33880 ft 449 kts 91°
2026-05-04 11:22 41.81458 30.94671 34888 ft 450 kts 73°
2026-05-04 11:22 41.82230 30.98694 34929 ft 450 kts 74°
2026-05-04 11:23 41.83767 31.06837 34912 ft 450 kts 74°
2026-05-04 11:24 41.88889 31.31096 35028 ft 451 kts 72°
2026-05-04 11:25 41.89754 31.35135 35200 ft 451 kts 72°
2026-05-04 11:25 41.90606 31.39142 35304 ft 454 kts 73°
2026-05-04 11:25 41.91470 31.43232 35378 ft 456 kts 73°
2026-05-04 11:26 41.93198 31.51447 35682 ft 457 kts 73°
2026-05-04 11:27 41.99227 31.80347 36605 ft 462 kts 73°
2026-05-04 11:28 42.00086 31.84500 36727 ft 462 kts 73°
2026-05-04 11:28 42.00947 31.88672 36805 ft 463 kts 73°
2026-05-04 11:28 42.01812 31.92843 36930 ft 463 kts 73°
2026-05-04 11:28 42.02678 31.97026 37027 ft 464 kts 74°
2026-05-04 11:29 42.04396 32.05412 37195 ft 466 kts 74°
2026-05-04 11:29 42.06121 32.13834 37405 ft 466 kts 74°
2026-05-04 11:31 42.12474 32.43262 37994 ft 469 kts 72°
2026-05-04 11:33 42.16963 32.73293 38522 ft 472 kts 87°
2026-05-04 11:33 42.17148 32.82155 38617 ft 472 kts 87°
2026-05-04 11:34 42.17317 32.91013 38725 ft 473 kts 87°
2026-05-04 11:34 42.17489 32.99768 38832 ft 472 kts 87°
2026-05-04 11:35 42.17674 33.08652 38851 ft 474 kts 86°
2026-05-04 11:35 42.17853 33.17547 38855 ft 475 kts 88°
2026-05-04 11:36 42.18015 33.26459 38853 ft 475 kts 88°
2026-05-04 11:36 42.18168 33.35365 38854 ft 474 kts 88°
2026-05-04 11:37 42.18327 33.44222 38847 ft 476 kts 88°
2026-05-04 11:37 42.18489 33.53154 38843 ft 476 kts 88°
2026-05-04 11:38 42.18632 33.62079 38837 ft 475 kts 88°
2026-05-04 11:38 42.18767 33.70973 38838 ft 474 kts 88°
2026-05-04 11:39 42.18844 33.79859 38835 ft 474 kts 92°
2026-05-04 11:41 42.15294 34.10660 38833 ft 476 kts 99°
2026-05-04 11:41 42.14170 34.19458 38833 ft 477 kts 99°
2026-05-04 11:42 42.13046 34.28298 38834 ft 480 kts 99°
2026-05-04 11:42 42.11921 34.37115 38837 ft 481 kts 99°
2026-05-04 11:43 42.10777 34.45961 38836 ft 478 kts 99°
2026-05-04 11:43 42.09572 34.54772 38840 ft 479 kts 101°
2026-05-04 11:44 42.08537 34.62136 38837 ft 481 kts 101°
2026-05-04 11:44 42.07294 34.71012 38836 ft 484 kts 101°
2026-05-04 11:45 42.06052 34.79875 38837 ft 484 kts 101°
2026-05-04 11:45 42.04802 34.88756 38837 ft 484 kts 101°
2026-05-04 11:46 42.03606 34.97632 38842 ft 486 kts 100°
2026-05-04 11:46 42.02422 35.06590 38840 ft 486 kts 100°
2026-05-04 11:47 42.01369 35.15596 38840 ft 486 kts 97°
2026-05-04 11:47 42.00543 35.24622 38842 ft 487 kts 97°
2026-05-04 11:48 41.99695 35.33689 38837 ft 489 kts 98°
2026-05-04 11:48 41.98800 35.42756 38839 ft 490 kts 98°
2026-05-04 11:49 41.97884 35.51775 38840 ft 489 kts 98°
2026-05-04 11:49 41.96952 35.60853 38839 ft 489 kts 99°
2026-05-04 11:50 41.96012 35.69908 38837 ft 489 kts 99°
2026-05-04 11:50 41.95071 35.78970 38837 ft 490 kts 99°
2026-05-04 11:51 41.94123 35.88031 38839 ft 490 kts 99°
2026-05-04 11:51 41.93168 35.97085 38830 ft 490 kts 99°
2026-05-04 11:52 41.92198 36.06147 38837 ft 490 kts 100°
2026-05-04 11:52 41.91227 36.15217 38822 ft 491 kts 100°
2026-05-04 11:53 41.90250 36.24280 38831 ft 491 kts 100°
2026-05-04 11:53 41.89262 36.33356 38823 ft 491 kts 100°
2026-05-04 11:55 41.85246 36.69515 38821 ft 490 kts 101°
2026-05-04 11:56 41.84207 36.78581 38817 ft 491 kts 101°
2026-05-04 11:56 41.83178 36.87632 38826 ft 491 kts 101°
2026-05-04 11:57 41.82151 36.96677 38824 ft 491 kts 101°
2026-05-04 11:57 41.81117 37.05679 38826 ft 491 kts 102°
2026-05-04 11:58 41.80069 37.14701 38825 ft 489 kts 102°
2026-05-04 11:58 41.79013 37.23707 38828 ft 489 kts 102°
2026-05-04 11:59 41.77950 37.32711 38832 ft 489 kts 102°
2026-05-04 11:59 41.76882 37.41707 38822 ft 489 kts 102°
2026-05-04 12:00 41.75803 37.50720 38835 ft 490 kts 102°
2026-05-04 12:00 41.74719 37.59732 38832 ft 490 kts 102°
2026-05-04 12:01 41.73628 37.68734 38828 ft 489 kts 102°
2026-05-04 12:02 41.69763 38.00163 38829 ft 491 kts 103°
2026-05-04 12:03 41.68635 38.09164 38828 ft 490 kts 103°
2026-05-04 12:03 41.67502 38.18166 38832 ft 489 kts 103°
2026-05-04 12:04 41.66373 38.27091 38831 ft 489 kts 103°
2026-05-04 12:04 41.65230 38.36059 38832 ft 488 kts 103°
2026-05-04 12:05 41.64083 38.45008 38832 ft 489 kts 103°
2026-05-04 12:05 41.62927 38.53968 38829 ft 489 kts 103°
2026-05-04 12:06 41.61765 38.62912 38831 ft 488 kts 103°
2026-05-04 12:06 41.60598 38.71843 38829 ft 487 kts 103°
2026-05-04 12:07 41.59436 38.80679 38826 ft 487 kts 103°
2026-05-04 12:07 41.58255 38.89606 38819 ft 488 kts 104°
2026-05-04 12:08 41.57065 38.98544 38835 ft 488 kts 104°
2026-05-04 12:08 41.55870 39.07461 38826 ft 488 kts 104°
2026-05-04 12:09 41.54675 39.16327 38836 ft 488 kts 104°
2026-05-04 12:09 41.53467 39.25234 38835 ft 488 kts 104°
2026-05-04 12:10 41.52241 39.34183 38837 ft 490 kts 104°
2026-05-04 12:10 41.51014 39.43141 38840 ft 491 kts 104°
2026-05-04 12:11 41.49780 39.52096 38843 ft 490 kts 104°
2026-05-04 12:11 41.48539 39.61032 38843 ft 490 kts 104°
2026-05-04 12:12 41.47288 39.69983 38847 ft 490 kts 104°
2026-05-04 12:12 41.46041 39.78856 38848 ft 490 kts 104°
2026-05-04 12:14 41.40945 40.14580 38847 ft 490 kts 105°
2026-05-04 12:15 41.39664 40.23430 38850 ft 489 kts 105°
2026-05-04 12:15 41.38372 40.32311 38848 ft 489 kts 105°
2026-05-04 12:16 41.37069 40.41212 38853 ft 489 kts 105°
2026-05-04 12:16 41.35761 40.50094 38859 ft 489 kts 105°
2026-05-04 12:17 41.34444 40.58986 38860 ft 489 kts 105°
2026-05-04 12:17 41.33125 40.67802 38861 ft 489 kts 105°
2026-05-04 12:18 41.31783 40.76722 38869 ft 493 kts 105°
2026-05-04 12:18 41.30443 40.85677 38880 ft 494 kts 105°
2026-05-04 12:19 41.29093 40.94638 38882 ft 493 kts 105°
2026-05-04 12:19 41.27736 41.03573 38884 ft 493 kts 106°
2026-05-04 12:20 41.26365 41.12521 38882 ft 494 kts 106°
2026-05-04 12:20 41.24995 41.21424 38884 ft 494 kts 106°
2026-05-04 12:21 41.23608 41.30383 38877 ft 494 kts 106°
2026-05-04 12:21 41.22220 41.39321 38864 ft 494 kts 106°
2026-05-04 12:22 41.20829 41.48209 38867 ft 493 kts 107°
2026-05-04 12:22 41.19423 41.57113 38861 ft 494 kts 107°
2026-05-04 12:23 41.18008 41.66073 38858 ft 494 kts 106°
2026-05-04 12:23 41.16602 41.74975 38831 ft 494 kts 107°
2026-05-04 12:24 41.15175 41.83927 38830 ft 496 kts 107°
2026-05-04 12:24 41.13740 41.92873 38838 ft 495 kts 107°
2026-05-04 12:25 41.12295 42.01797 38806 ft 495 kts 107°
2026-05-04 12:25 41.10858 42.10662 38821 ft 495 kts 107°
2026-05-04 12:26 41.09399 42.19609 38817 ft 497 kts 107°
2026-05-04 12:26 41.07931 42.28563 38823 ft 497 kts 107°
2026-05-04 12:27 41.06458 42.37511 38814 ft 497 kts 107°
2026-05-04 12:27 41.04976 42.46455 38829 ft 498 kts 107°
2026-05-04 12:28 41.03483 42.55416 38832 ft 498 kts 107°
2026-05-04 12:28 41.01993 42.64329 38845 ft 497 kts 108°
2026-05-04 12:29 41.00491 42.73256 38825 ft 497 kts 107°
2026-05-04 12:29 40.98977 42.82205 38844 ft 498 kts 108°
2026-05-04 12:30 40.97710 42.89663 38843 ft 499 kts 108°
2026-05-04 12:30 40.96195 42.98594 38850 ft 499 kts 108°
2026-05-04 12:31 40.94661 43.07545 38857 ft 498 kts 108°
2026-05-04 12:31 40.93110 43.16500 38855 ft 501 kts 108°
2026-05-04 12:32 40.90765 43.30015 38855 ft 503 kts 108°
2026-05-04 12:33 40.89193 43.39031 38861 ft 503 kts 108°
2026-05-04 12:33 40.87625 43.47981 38866 ft 503 kts 108°
2026-05-04 12:34 40.86039 43.56985 38868 ft 503 kts 108°
2026-05-04 12:34 40.84447 43.65979 38871 ft 503 kts 108°
2026-05-04 12:35 40.82743 43.74935 38855 ft 500 kts 111°
2026-05-04 12:35 40.80752 43.83703 38871 ft 503 kts 112°
2026-05-04 12:36 40.78715 43.92541 38876 ft 504 kts 112°
2026-05-04 12:36 40.76716 44.01413 38883 ft 504 kts 111°
2026-05-04 12:37 40.74731 44.10311 38874 ft 505 kts 111°
2026-05-04 12:37 40.72739 44.19212 38874 ft 507 kts 112°
2026-05-04 12:38 40.70735 44.28123 38863 ft 507 kts 112°
2026-05-04 12:38 40.68727 44.37020 38837 ft 506 kts 112°
2026-05-04 12:39 40.66723 44.45859 38850 ft 507 kts 112°
2026-05-04 12:39 40.64692 44.54776 38835 ft 507 kts 112°
2026-05-04 12:40 40.62659 44.63666 38821 ft 507 kts 112°
2026-05-04 12:40 40.60618 44.72560 38821 ft 508 kts 112°
2026-05-04 12:41 40.58565 44.81468 38813 ft 508 kts 112°
2026-05-04 12:41 40.56517 44.90322 38802 ft 508 kts 112°
2026-05-04 12:42 40.54451 44.99219 38799 ft 508 kts 112°
2026-05-04 12:42 40.52376 45.08120 38804 ft 509 kts 113°
2026-05-04 12:43 40.50293 45.17017 38798 ft 510 kts 113°
2026-05-04 12:43 40.48202 45.25917 38793 ft 510 kts 113°
2026-05-04 12:44 40.46104 45.34817 38783 ft 510 kts 114°
2026-05-04 12:44 40.44006 45.43677 38791 ft 511 kts 113°
2026-05-04 12:45 40.41890 45.52577 38792 ft 511 kts 113°
2026-05-04 12:45 40.40046 45.61638 38791 ft 519 kts 103°
2026-05-04 12:46 40.40134 45.71178 38802 ft 532 kts 85°
2026-05-04 12:46 40.41408 45.80737 38802 ft 537 kts 83°
2026-05-04 12:47 40.42870 45.90375 38801 ft 539 kts 82°
2026-05-04 12:47 40.44311 46.00022 38804 ft 539 kts 83°
2026-05-04 12:48 40.45704 46.09645 38799 ft 529 kts 83°
2026-05-04 12:48 40.47048 46.19063 38826 ft 523 kts 83°
2026-05-04 12:49 40.48374 46.28488 38809 ft 527 kts 83°
2026-05-04 12:49 40.49704 46.37984 38835 ft 530 kts 83°
2026-05-04 12:50 40.51042 46.47561 38835 ft 533 kts 83°
2026-05-04 12:50 40.52366 46.57097 38837 ft 535 kts 83°
2026-05-04 12:51 40.53696 46.66721 38834 ft 535 kts 83°
2026-05-04 12:51 40.55016 46.76346 38836 ft 534 kts 83°
2026-05-04 12:52 40.56326 46.85961 38851 ft 535 kts 83°
2026-05-04 12:52 40.57631 46.95608 38836 ft 535 kts 83°
2026-05-04 12:53 40.58923 47.05217 38858 ft 537 kts 83°
2026-05-04 12:53 40.60207 47.14917 38844 ft 538 kts 85°
2026-05-04 12:54 40.60498 47.24681 38857 ft 532 kts 95°
2026-05-04 12:54 40.60275 47.34373 38858 ft 532 kts 97°
2026-05-04 12:55 40.59968 47.44085 38855 ft 532 kts 97°
2026-05-04 12:55 40.59657 47.53836 38853 ft 532 kts 97°
2026-05-04 12:56 40.59346 47.63582 38854 ft 532 kts 97°
2026-05-04 12:56 40.59045 47.73329 38852 ft 534 kts 97°
2026-05-04 12:57 40.58833 47.83039 38858 ft 534 kts 96°
2026-05-04 12:57 40.58554 47.92812 38849 ft 534 kts 97°
2026-05-04 12:58 40.58104 48.02575 38854 ft 534 kts 97°
2026-05-04 12:58 40.57608 48.12292 38845 ft 533 kts 98°
2026-05-04 12:59 40.57133 48.22052 38855 ft 533 kts 98°
2026-05-04 12:59 40.56670 48.31779 38853 ft 533 kts 98°
2026-05-04 13:00 40.56209 48.41513 38836 ft 532 kts 98°
2026-05-04 13:00 40.55743 48.51220 38847 ft 532 kts 98°
2026-05-04 13:01 40.55266 48.60971 38833 ft 532 kts 97°
2026-05-04 13:01 40.54784 48.70611 38839 ft 532 kts 98°
2026-05-04 13:02 40.54295 48.80312 38830 ft 531 kts 98°
2026-05-04 13:02 40.53795 48.90000 38831 ft 532 kts 98°
2026-05-04 13:03 40.53285 48.99740 38827 ft 533 kts 98°
2026-05-04 13:03 40.52767 49.09476 38825 ft 534 kts 98°
2026-05-04 13:04 40.52241 49.19231 38822 ft 535 kts 98°
2026-05-04 13:04 40.51715 49.28932 38812 ft 535 kts 98°
2026-05-04 13:05 40.51169 49.38687 38823 ft 535 kts 98°
2026-05-04 13:05 40.50616 49.48426 38819 ft 535 kts 98°
2026-05-04 13:06 40.50055 49.58185 38830 ft 536 kts 98°
2026-05-04 13:06 40.49487 49.67955 38819 ft 537 kts 98°
2026-05-04 13:07 40.48910 49.77736 38832 ft 537 kts 98°
2026-05-04 13:07 40.48322 49.87540 38831 ft 539 kts 98°
2026-05-04 13:08 40.47729 49.97312 38829 ft 539 kts 98°
2026-05-04 13:08 40.47121 50.07128 38828 ft 538 kts 99°
2026-05-04 13:09 40.46024 50.16813 38815 ft 535 kts 104°
2026-05-04 13:09 40.44648 50.26429 38828 ft 536 kts 104°
2026-05-04 13:10 40.43328 50.36072 38832 ft 536 kts 104°
2026-05-04 13:10 40.42070 50.45720 38835 ft 536 kts 103°
2026-05-04 13:11 40.40826 50.55371 38824 ft 536 kts 103°
2026-05-04 13:11 40.39573 50.65018 38845 ft 536 kts 103°
2026-05-04 13:12 40.38317 50.74602 38850 ft 536 kts 103°
2026-05-04 13:12 40.37046 50.84227 38856 ft 536 kts 103°
2026-05-04 13:13 40.36800 50.94019 38841 ft 542 kts 83°
2026-05-04 13:13 40.38300 51.03711 38857 ft 543 kts 78°
2026-05-04 13:14 40.40080 51.13389 38854 ft 544 kts 77°
2026-05-04 13:14 40.41865 51.23037 38860 ft 544 kts 77°
2026-05-04 13:15 40.43605 51.32653 38859 ft 544 kts 77°
2026-05-04 13:15 40.45327 51.42315 38853 ft 542 kts 77°
2026-05-04 13:16 40.45935 51.52090 38854 ft 536 kts 98°
2026-05-04 13:16 40.44877 51.60083 38854 ft 533 kts 105°
2026-05-04 13:17 40.43167 51.69548 38860 ft 533 kts 107°
2026-05-04 13:17 40.41377 51.78957 38850 ft 533 kts 107°
2026-05-04 13:18 40.39600 51.88403 38857 ft 533 kts 107°
2026-05-04 13:18 40.37837 51.97867 38856 ft 532 kts 107°
2026-05-04 13:19 40.36075 52.07315 38856 ft 532 kts 107°
2026-05-04 13:19 40.34309 52.16745 38859 ft 532 kts 107°
2026-05-04 13:20 40.32547 52.26095 38859 ft 532 kts 107°
2026-05-04 13:20 40.30763 52.35518 38851 ft 532 kts 107°
2026-05-04 13:21 40.28969 52.44945 38859 ft 533 kts 107°
2026-05-04 13:21 40.27131 52.54365 38857 ft 532 kts 110°
2026-05-04 13:22 40.24026 52.63043 38862 ft 522 kts 126°
2026-05-04 13:22 40.20054 52.70914 38864 ft 521 kts 129°
2026-05-04 13:23 40.15900 52.78717 38864 ft 522 kts 129°
2026-05-04 13:23 40.11744 52.86519 38859 ft 522 kts 129°
2026-05-04 13:24 40.07625 52.94294 38828 ft 523 kts 129°
2026-05-04 13:24 40.03768 53.02360 38836 ft 530 kts 118°
2026-05-04 13:25 39.99731 53.15861 38824 ft 534 kts 113°
2026-05-04 13:25 39.97213 53.24979 38836 ft 534 kts 113°
2026-05-04 13:26 39.94652 53.34084 38837 ft 535 kts 114°
2026-05-04 13:26 39.92047 53.43222 38839 ft 538 kts 114°
2026-05-04 13:27 39.89419 53.52365 38851 ft 541 kts 114°
2026-05-04 13:27 39.86785 53.61495 38832 ft 539 kts 111°
2026-05-04 13:28 39.84170 53.70565 38827 ft 535 kts 114°
2026-05-04 13:28 39.81532 53.79635 38823 ft 535 kts 114°
2026-05-04 13:29 39.78890 53.88689 38818 ft 536 kts 114°
2026-05-04 13:29 39.76242 53.97744 38819 ft 536 kts 114°
2026-05-04 13:30 39.73589 54.06789 38814 ft 535 kts 114°
2026-05-04 13:30 39.70920 54.15857 38817 ft 536 kts 114°
2026-05-04 13:31 39.68266 54.24825 38815 ft 537 kts 114°
2026-05-04 13:31 39.65588 54.33872 38816 ft 537 kts 114°
2026-05-04 13:32 39.62897 54.42930 38822 ft 538 kts 114°
2026-05-04 13:32 39.60200 54.51986 38822 ft 538 kts 114°
2026-05-04 13:33 39.57487 54.61044 38827 ft 538 kts 114°
2026-05-04 13:33 39.54762 54.70107 38823 ft 540 kts 114°
2026-05-04 13:34 39.52031 54.79165 38818 ft 540 kts 114°
2026-05-04 13:34 39.49305 54.88182 38812 ft 540 kts 114°
2026-05-04 13:35 39.45183 55.01759 38813 ft 540 kts 114°
2026-05-04 13:36 39.42426 55.10802 38811 ft 540 kts 114°
2026-05-04 13:36 39.39679 55.19780 38810 ft 540 kts 114°
2026-05-04 13:37 39.36911 55.28797 38810 ft 540 kts 114°
2026-05-04 13:37 39.34137 55.37804 38812 ft 538 kts 114°
2026-05-04 13:38 39.31365 55.46776 38813 ft 537 kts 114°
2026-05-04 13:38 39.28583 55.55750 38818 ft 538 kts 114°
2026-05-04 13:39 39.25558 55.64546 38819 ft 536 kts 119°
2026-05-04 13:39 39.22163 55.73044 38815 ft 535 kts 120°
2026-05-04 13:40 39.18754 55.81603 38815 ft 536 kts 120°
2026-05-04 13:40 39.15411 55.90193 38819 ft 536 kts 119°
2026-05-04 13:41 39.12094 55.98782 38822 ft 535 kts 119°
2026-05-04 13:41 39.08772 56.07368 38806 ft 536 kts 119°
2026-05-04 13:42 39.03766 56.20242 38818 ft 539 kts 119°
2026-05-04 13:42 39.00443 56.28865 38816 ft 535 kts 116°
2026-05-04 13:43 38.97790 56.37871 38818 ft 540 kts 111°
2026-05-04 13:43 38.95285 56.46991 38822 ft 542 kts 111°
2026-05-04 13:44 38.92787 56.56149 38824 ft 541 kts 111°
2026-05-04 13:44 38.90295 56.65195 38809 ft 540 kts 111°
2026-05-04 13:45 38.87772 56.74302 38821 ft 542 kts 111°
2026-05-04 13:45 38.85235 56.83431 38827 ft 542 kts 111°
2026-05-04 13:46 38.82692 56.92545 38826 ft 541 kts 111°
2026-05-04 13:46 38.80154 57.01609 38826 ft 541 kts 111°
2026-05-04 13:47 38.77611 57.10653 38829 ft 543 kts 111°
2026-05-04 13:47 38.75047 57.19747 38820 ft 542 kts 111°
2026-05-04 13:48 38.72478 57.28822 38807 ft 542 kts 111°
2026-05-04 13:48 38.69896 57.37916 38824 ft 543 kts 111°
2026-05-04 13:49 38.67308 57.46999 38830 ft 543 kts 112°
2026-05-04 13:49 38.64716 57.56064 38825 ft 542 kts 112°
2026-05-04 13:50 38.62131 57.65074 38827 ft 543 kts 112°
2026-05-04 13:50 38.59323 57.74057 38822 ft 543 kts 116°
2026-05-04 13:51 38.56165 57.82769 38824 ft 543 kts 117°
2026-05-04 13:51 38.52987 57.91528 38822 ft 543 kts 117°
2026-05-04 13:52 38.48331 58.04671 38822 ft 542 kts 116°
2026-05-04 13:53 38.45240 58.13441 38822 ft 542 kts 116°
2026-05-04 13:53 38.42140 58.22204 38817 ft 542 kts 116°
2026-05-04 13:54 38.36883 58.34913 38826 ft 540 kts 123°
2026-05-04 13:55 38.31094 58.47215 38834 ft 539 kts 124°
2026-05-04 13:55 38.25273 58.59482 38836 ft 540 kts 124°
2026-05-04 13:56 38.21412 58.67619 38833 ft 540 kts 124°
2026-05-04 13:57 38.15574 58.79896 38834 ft 541 kts 124°
2026-05-04 13:58 38.07769 58.96234 38838 ft 542 kts 124°
2026-05-04 13:58 38.01879 59.08507 38841 ft 542 kts 124°
2026-05-04 13:59 37.97949 59.16671 38847 ft 542 kts 124°
2026-05-04 14:00 37.92063 59.28861 38848 ft 542 kts 124°
2026-05-04 14:00 37.85706 59.40645 38859 ft 539 kts 130°
2026-05-04 14:01 37.81167 59.48224 38858 ft 539 kts 130°
2026-05-04 14:02 37.74353 59.59481 38867 ft 539 kts 131°
2026-05-04 14:02 37.69790 59.67014 38875 ft 540 kts 130°
2026-05-04 14:03 37.65224 59.74549 38872 ft 540 kts 130°
2026-05-04 14:03 37.61429 59.80801 38881 ft 541 kts 130°
2026-05-04 14:04 37.54552 59.92097 38888 ft 541 kts 130°
2026-05-04 14:04 37.49973 59.99597 38884 ft 539 kts 130°
2026-05-04 14:05 37.43091 60.10833 38897 ft 541 kts 130°
2026-05-04 14:06 37.38521 60.18275 38916 ft 541 kts 130°
2026-05-04 14:06 37.33919 60.25750 38902 ft 540 kts 130°
2026-05-04 14:07 37.29313 60.33219 38916 ft 541 kts 130°
2026-05-04 14:07 37.24696 60.40688 38922 ft 541 kts 130°
2026-05-04 14:08 37.20084 60.48130 38930 ft 541 kts 130°
2026-05-04 14:08 37.15449 60.55595 38926 ft 540 kts 130°
2026-05-04 14:09 37.08542 60.66687 38925 ft 540 kts 130°
2026-05-04 14:10 37.01572 60.77840 38943 ft 544 kts 130°
2026-05-04 14:10 36.96914 60.85280 38936 ft 543 kts 130°
2026-05-04 14:11 36.92482 60.92958 38910 ft 544 kts 127°
2026-05-04 14:11 36.86062 61.04642 38945 ft 547 kts 127°
2026-05-04 14:12 36.81707 61.12427 38925 ft 545 kts 127°
2026-05-04 14:13 36.75167 61.23984 38920 ft 545 kts 127°
2026-05-04 14:13 36.70773 61.31716 38922 ft 546 kts 127°
2026-05-04 14:14 36.66384 61.39427 38917 ft 545 kts 127°
2026-05-04 14:14 36.59789 61.50955 38917 ft 545 kts 128°
2026-05-04 14:15 36.50818 61.66175 38919 ft 545 kts 128°
2026-05-04 14:16 36.44113 61.77537 38914 ft 546 kts 128°
2026-05-04 14:17 36.37359 61.88965 38914 ft 547 kts 128°
2026-05-04 14:18 36.30605 62.00354 38924 ft 547 kts 128°
2026-05-04 14:19 36.21584 62.15505 38919 ft 548 kts 128°
2026-05-04 14:19 36.17054 62.23089 38932 ft 548 kts 128°
2026-05-04 14:20 36.12511 62.30676 38929 ft 549 kts 128°
2026-05-04 14:20 36.07948 62.38281 38916 ft 550 kts 128°
2026-05-04 14:21 36.01104 62.49658 38926 ft 550 kts 128°
2026-05-04 14:21 35.96525 62.57247 38927 ft 551 kts 128°
2026-05-04 14:22 35.91965 62.64789 38919 ft 550 kts 128°
2026-05-04 14:22 35.87359 62.72389 38918 ft 550 kts 128°
2026-05-04 14:23 35.80460 62.83743 38937 ft 553 kts 128°
2026-05-04 14:24 35.75880 62.91261 38924 ft 552 kts 128°
2026-05-04 14:24 35.71259 62.98828 38927 ft 552 kts 128°
2026-05-04 14:25 35.66676 63.06317 38928 ft 552 kts 128°
2026-05-04 14:25 35.59737 63.17622 38925 ft 551 kts 128°
2026-05-04 14:26 35.55116 63.25119 38928 ft 550 kts 129°
2026-05-04 14:26 35.50451 63.32547 38934 ft 550 kts 129°
2026-05-04 14:27 35.45750 63.40007 38938 ft 552 kts 129°
2026-05-04 14:27 35.41083 63.47417 38944 ft 552 kts 129°
2026-05-04 14:28 35.36365 63.54906 38957 ft 551 kts 129°
2026-05-04 14:28 35.31698 63.62300 38966 ft 552 kts 129°
2026-05-04 14:29 35.22305 63.77193 38976 ft 553 kts 129°
2026-05-04 14:30 35.17598 63.84653 38978 ft 554 kts 129°
2026-05-04 14:31 35.10533 63.95811 38984 ft 555 kts 129°
2026-05-04 14:32 35.01070 64.10701 38997 ft 554 kts 129°
2026-05-04 14:32 34.96330 64.18139 38993 ft 555 kts 129°
2026-05-04 14:33 34.91589 64.25561 39012 ft 555 kts 129°
2026-05-04 14:33 34.86832 64.32988 39006 ft 555 kts 129°
2026-05-04 14:34 34.82109 64.40346 39033 ft 556 kts 129°
2026-05-04 14:34 34.77340 64.47765 39033 ft 556 kts 129°
2026-05-04 14:35 34.72564 64.55177 39036 ft 556 kts 129°
2026-05-04 14:35 34.67787 64.62573 39019 ft 557 kts 129°
2026-05-04 14:36 34.62988 64.69991 39028 ft 559 kts 129°
2026-05-04 14:36 34.58176 64.77412 39021 ft 559 kts 129°
2026-05-04 14:37 34.53370 64.84810 39019 ft 559 kts 129°
2026-05-04 14:37 34.48541 64.92232 39011 ft 560 kts 129°
2026-05-04 14:38 34.43693 64.99651 39011 ft 561 kts 129°
2026-05-04 14:38 34.38851 65.07027 38998 ft 559 kts 129°
2026-05-04 14:39 34.34012 65.14393 38977 ft 559 kts 129°
2026-05-04 14:39 34.29160 65.21769 38991 ft 560 kts 129°
2026-05-04 14:40 34.21890 65.32781 38993 ft 561 kts 129°
2026-05-04 14:40 34.17026 65.40130 38958 ft 559 kts 129°
2026-05-04 14:41 34.12162 65.47471 38978 ft 561 kts 129°
2026-05-04 14:42 34.02374 65.62190 38976 ft 562 kts 129°
2026-05-04 14:42 33.97501 65.69518 38963 ft 559 kts 129°
2026-05-04 14:43 33.92668 65.76782 38947 ft 558 kts 129°
2026-05-04 14:43 33.87810 65.84069 38947 ft 558 kts 129°
2026-05-04 14:44 33.82934 65.91353 38947 ft 558 kts 129°
2026-05-04 14:44 33.78054 65.98635 38932 ft 558 kts 129°
2026-05-04 14:45 33.73211 66.05841 38921 ft 559 kts 129°
2026-05-04 14:45 33.68313 66.13114 38917 ft 559 kts 129°
2026-05-04 14:46 33.63411 66.20371 38904 ft 559 kts 129°
2026-05-04 14:46 33.58503 66.27632 38903 ft 560 kts 129°
2026-05-04 14:47 33.53589 66.34877 38893 ft 558 kts 129°
2026-05-04 14:47 33.48694 66.42095 38894 ft 557 kts 129°
2026-05-04 14:48 33.43841 66.49244 38891 ft 557 kts 130°
2026-05-04 14:48 33.38918 66.56438 38906 ft 559 kts 130°
2026-05-04 14:49 33.33981 66.63625 38938 ft 558 kts 130°
2026-05-04 14:49 33.29039 66.70813 38938 ft 557 kts 130°
2026-05-04 14:50 33.24943 66.76760 38967 ft 557 kts 130°
2026-05-04 14:50 33.20000 66.83928 38962 ft 559 kts 130°
2026-05-04 14:51 33.15036 66.91115 38978 ft 561 kts 130°
2026-05-04 14:51 33.10085 66.98268 38964 ft 558 kts 130°
2026-05-04 14:52 33.05165 67.05359 38920 ft 558 kts 130°
2026-05-04 14:52 33.00210 67.12486 38930 ft 559 kts 130°
2026-05-04 14:53 32.95232 67.19634 38929 ft 561 kts 130°
2026-05-04 14:53 32.90244 67.26786 38915 ft 559 kts 130°
2026-05-04 14:54 32.85276 67.33894 38854 ft 557 kts 130°
2026-05-04 14:54 32.80327 67.40960 38865 ft 557 kts 130°
2026-05-04 14:55 32.75347 67.48025 38855 ft 557 kts 131°
2026-05-04 14:55 32.70213 67.54931 38865 ft 557 kts 133°
2026-05-04 14:56 32.65079 67.61728 38826 ft 555 kts 132°
2026-05-04 14:56 32.59931 67.68581 38833 ft 557 kts 132°
2026-05-04 14:57 32.54773 67.75473 38820 ft 561 kts 132°
2026-05-04 14:57 32.49580 67.82436 38827 ft 565 kts 132°
2026-05-04 14:58 32.44514 67.89579 38828 ft 568 kts 129°
2026-05-04 14:58 32.39554 67.96828 38846 ft 571 kts 129°
2026-05-04 14:59 32.34515 68.04131 38846 ft 574 kts 129°
2026-05-04 15:00 32.26874 68.15066 38854 ft 576 kts 129°
2026-05-04 15:00 32.21751 68.22361 38866 ft 577 kts 130°
2026-05-04 15:01 32.14039 68.33308 38866 ft 577 kts 130°
2026-05-04 15:01 32.08927 68.40559 38865 ft 578 kts 130°
2026-05-04 15:02 32.03777 68.47853 38864 ft 578 kts 130°
2026-05-04 15:02 31.98659 68.55092 38861 ft 567 kts 130°
2026-05-04 15:03 31.93672 68.62158 38858 ft 558 kts 130°
2026-05-04 15:03 31.88699 68.69140 38858 ft 557 kts 130°
2026-05-04 15:04 31.83746 68.76086 38842 ft 557 kts 130°
2026-05-04 15:04 31.78762 68.83075 38855 ft 558 kts 130°
2026-05-04 15:05 31.73744 68.90103 38861 ft 556 kts 130°
2026-05-04 15:05 31.68817 68.96991 38861 ft 553 kts 130°
2026-05-04 15:06 31.63890 69.03944 38843 ft 552 kts 129°
2026-05-04 15:07 31.56742 69.14631 38857 ft 558 kts 128°
2026-05-04 15:07 31.51955 69.21819 38863 ft 559 kts 128°
2026-05-04 15:08 31.47177 69.28916 38849 ft 556 kts 129°
2026-05-04 15:08 31.42375 69.35999 38824 ft 555 kts 129°
2026-05-04 15:09 31.37190 69.42688 38850 ft 555 kts 142°
2026-05-04 15:09 31.34028 69.45255 38841 ft 550 kts 154°
2026-05-04 15:09 31.30569 69.47073 38841 ft 543 kts 166°
2026-05-04 15:10 31.19611 69.50116 38790 ft 539 kts 173°
2026-05-04 15:11 31.08575 69.52745 38836 ft 540 kts 173°
2026-05-04 15:11 31.01255 69.54538 38856 ft 534 kts 173°
2026-05-04 15:12 30.94055 69.56313 38843 ft 517 kts 172°
2026-05-04 15:12 30.87057 69.58065 38852 ft 520 kts 173°
2026-05-04 15:13 30.79940 69.59826 38849 ft 526 kts 173°
2026-05-04 15:13 30.72731 69.61601 38839 ft 532 kts 173°
2026-05-04 15:14 30.65447 69.63398 38830 ft 537 kts 173°
2026-05-04 15:14 30.58137 69.65203 38835 ft 537 kts 173°
2026-05-04 15:15 30.50835 69.67000 38843 ft 537 kts 173°
2026-05-04 15:15 30.43524 69.68795 38834 ft 537 kts 173°
2026-05-04 15:16 30.32489 69.71495 38834 ft 543 kts 173°
2026-05-04 15:17 30.21454 69.74243 38828 ft 544 kts 172°
2026-05-04 15:17 30.10413 69.77486 38828 ft 548 kts 171°
2026-05-04 15:18 30.02996 69.79699 38819 ft 551 kts 171°
2026-05-04 15:19 29.91888 69.82971 38790 ft 550 kts 171°
2026-05-04 15:19 29.80699 69.86217 38792 ft 554 kts 172°
2026-05-04 15:20 29.73256 69.88465 38796 ft 551 kts 169°
2026-05-04 15:20 29.65858 69.90697 38779 ft 549 kts 169°
2026-05-04 15:21 29.58450 69.92865 38762 ft 549 kts 169°
2026-05-04 15:22 29.47382 69.96047 38758 ft 549 kts 169°
2026-05-04 15:22 29.36258 69.99238 38743 ft 549 kts 170°
2026-05-04 15:23 29.28838 70.01365 38732 ft 550 kts 170°
2026-05-04 15:23 29.21412 70.03490 38733 ft 549 kts 170°
2026-05-04 15:24 29.06625 70.07714 38704 ft 549 kts 170°
2026-05-04 15:25 28.99206 70.09828 38697 ft 549 kts 170°
2026-05-04 15:26 28.88070 70.12995 38667 ft 549 kts 170°
2026-05-04 15:26 28.76950 70.16033 38681 ft 549 kts 172°
2026-05-04 15:27 28.65765 70.19099 38680 ft 549 kts 172°
2026-05-04 15:28 28.54680 70.22228 38677 ft 548 kts 171°
2026-05-04 15:29 28.43634 70.25619 38677 ft 554 kts 162°
2026-05-04 15:30 28.32344 70.37283 38680 ft 564 kts 117°
2026-05-04 15:30 28.27191 70.49272 38669 ft 566 kts 114°
2026-05-04 15:31 28.22128 70.61379 38672 ft 565 kts 114°
2026-05-04 15:32 28.13540 70.81404 38663 ft 565 kts 115°
2026-05-04 15:34 28.04930 71.01372 38673 ft 563 kts 113°
2026-05-04 15:34 28.00038 71.13437 38676 ft 563 kts 110°
2026-05-04 15:35 27.95548 71.24121 38683 ft 564 kts 112°
2026-05-04 15:36 27.89787 71.37339 38679 ft 563 kts 112°
2026-05-04 15:36 27.86880 71.43977 38680 ft 562 kts 112°
2026-05-04 15:37 27.83332 71.51786 38680 ft 563 kts 114°
2026-05-04 15:37 27.79688 71.59603 38691 ft 562 kts 114°
2026-05-04 15:38 27.76049 71.67430 38683 ft 562 kts 114°
2026-05-04 15:38 27.72427 71.75251 38683 ft 562 kts 114°
2026-05-04 15:39 27.68814 71.83058 38687 ft 561 kts 114°
2026-05-04 15:40 27.63386 71.94757 38687 ft 560 kts 114°
2026-05-04 15:40 27.59765 72.02538 38690 ft 559 kts 114°
2026-05-04 15:41 27.56137 72.10319 38692 ft 559 kts 114°
2026-05-04 15:41 27.52516 72.18071 38693 ft 559 kts 114°
2026-05-04 15:42 27.48916 72.25765 38706 ft 559 kts 115°
2026-05-04 15:42 27.45223 72.33460 38700 ft 557 kts 120°
2026-05-04 15:43 27.41402 72.41037 38695 ft 556 kts 120°
2026-05-04 15:43 27.37688 72.48661 38705 ft 556 kts 118°
2026-05-04 15:44 27.34045 72.56351 38696 ft 556 kts 118°
2026-05-04 15:44 27.30425 72.64041 38718 ft 555 kts 118°
2026-05-04 15:45 27.26835 72.71646 38724 ft 553 kts 118°
2026-05-04 15:45 27.23211 72.79298 38726 ft 553 kts 119°
2026-05-04 15:46 27.19593 72.86919 38738 ft 553 kts 119°
2026-05-04 15:46 27.15971 72.94534 38723 ft 553 kts 119°
2026-05-04 15:47 27.12350 73.02134 38747 ft 551 kts 119°
2026-05-04 15:47 27.08732 73.09715 38756 ft 550 kts 119°
2026-05-04 15:48 27.05112 73.17286 38753 ft 550 kts 119°
2026-05-04 15:48 26.99677 73.28628 38757 ft 550 kts 119°
2026-05-04 15:49 26.96075 73.36130 38755 ft 548 kts 119°
2026-05-04 15:49 26.92447 73.43626 38761 ft 547 kts 120°
2026-05-04 15:50 26.88776 73.51101 38760 ft 547 kts 120°
2026-05-04 15:50 26.85115 73.58561 38765 ft 547 kts 120°
2026-05-04 15:51 26.81433 73.66044 38792 ft 547 kts 122°
2026-05-04 15:51 26.77680 73.73444 38775 ft 547 kts 122°
2026-05-04 15:52 26.73942 73.80846 38777 ft 549 kts 122°
2026-05-04 15:52 26.70234 73.88323 38778 ft 549 kts 121°
2026-05-04 15:53 26.66543 73.95807 38783 ft 549 kts 121°
2026-05-04 15:53 26.62842 74.03296 38777 ft 548 kts 122°
2026-05-04 15:54 26.59187 74.10672 38785 ft 543 kts 122°
2026-05-04 15:54 26.55521 74.18055 38788 ft 544 kts 122°
2026-05-04 15:55 26.51860 74.25505 38793 ft 548 kts 121°
2026-05-04 15:55 26.48193 74.33013 38792 ft 553 kts 121°
2026-05-04 15:56 26.44525 74.40504 38807 ft 551 kts 122°
2026-05-04 15:56 26.40873 74.47995 38804 ft 550 kts 122°
2026-05-04 15:57 26.37196 74.55465 38799 ft 549 kts 122°
2026-05-04 15:57 26.33503 74.62932 38797 ft 549 kts 122°
2026-05-04 15:58 26.29810 74.70403 38796 ft 551 kts 122°
2026-05-04 15:58 26.26113 74.77880 38798 ft 551 kts 122°
2026-05-04 15:59 26.22410 74.85360 38801 ft 551 kts 122°
2026-05-04 15:59 26.18705 74.92832 38801 ft 551 kts 122°
2026-05-04 16:00 26.14673 75.00055 38801 ft 549 kts 125°
2026-05-04 16:00 26.10490 75.07180 38813 ft 550 kts 126°
2026-05-04 16:01 26.06260 75.14255 38810 ft 547 kts 126°
2026-05-04 16:01 26.02030 75.21221 38809 ft 547 kts 127°
2026-05-04 16:02 25.97754 75.28224 38810 ft 547 kts 127°
2026-05-04 16:03 25.91340 75.38715 38808 ft 547 kts 127°
2026-05-04 16:03 25.87049 75.45715 38808 ft 547 kts 128°
2026-05-04 16:04 25.82536 75.52477 38785 ft 544 kts 131°
2026-05-04 16:04 25.75598 75.62456 38801 ft 544 kts 131°
2026-05-04 16:05 25.70998 75.69155 38799 ft 545 kts 130°
2026-05-04 16:06 25.64215 75.79142 38811 ft 537 kts 129°
2026-05-04 16:06 25.58376 75.87866 38791 ft 520 kts 130°
2026-05-04 16:07 25.55486 75.92130 38787 ft 512 kts 130°
2026-05-04 16:07 25.49144 76.01394 38798 ft 496 kts 132°
2026-05-04 16:08 25.47047 76.04389 38797 ft 499 kts 132°
2026-05-04 16:08 25.40584 76.13584 38794 ft 510 kts 132°
2026-05-04 16:09 25.36238 76.19862 38790 ft 517 kts 131°
2026-05-04 16:10 25.27431 76.32636 38792 ft 530 kts 131°
2026-05-04 16:11 25.18380 76.45723 38793 ft 541 kts 131°
2026-05-04 16:12 25.04667 76.65486 38800 ft 540 kts 132°
2026-05-04 16:13 24.95003 76.77970 38802 ft 534 kts 138°
2026-05-04 16:14 24.84725 76.89822 38804 ft 533 kts 139°
2026-05-04 16:16 24.71952 77.04527 38812 ft 533 kts 139°
2026-05-04 16:17 24.59141 77.19244 38823 ft 532 kts 139°
2026-05-04 16:18 24.48878 77.30998 38833 ft 533 kts 139°
2026-05-04 16:19 24.36123 77.45569 38846 ft 529 kts 139°
2026-05-04 16:20 24.23369 77.60089 38859 ft 530 kts 140°
2026-05-04 16:22 24.11416 77.73659 38854 ft 528 kts 140°
2026-05-04 16:23 23.96140 77.90944 38842 ft 528 kts 140°
2026-05-04 16:25 23.80766 78.08274 38841 ft 531 kts 140°
2026-05-04 16:26 23.62791 78.28462 38806 ft 530 kts 140°
2026-05-04 16:28 23.49920 78.42865 38809 ft 530 kts 140°
2026-05-04 16:29 23.31910 78.62946 38782 ft 529 kts 139°
2026-05-04 16:31 23.19078 78.77172 38791 ft 525 kts 140°
2026-05-04 16:32 23.03803 78.93351 38752 ft 524 kts 141°
2026-05-04 16:33 22.93371 79.04415 38794 ft 525 kts 140°
2026-05-04 16:34 22.85559 79.12725 38797 ft 524 kts 140°
2026-05-04 16:35 22.69950 79.29246 38798 ft 523 kts 140°
2026-05-04 16:36 22.62134 79.37492 38809 ft 522 kts 140°
2026-05-04 16:37 22.57307 79.43398 38795 ft 530 kts 127°
2026-05-04 16:37 22.55528 79.46894 38804 ft 534 kts 116°
2026-05-04 16:38 22.50174 79.61882 38794 ft 536 kts 113°
2026-05-04 16:39 22.43678 79.80727 38780 ft 534 kts 113°
2026-05-04 16:40 22.38443 79.95684 38777 ft 530 kts 113°
2026-05-04 16:41 22.31895 80.14325 38774 ft 531 kts 113°
2026-05-04 16:43 22.25366 80.32843 38778 ft 527 kts 114°
2026-05-04 16:43 22.21441 80.43944 38780 ft 527 kts 114°
2026-05-04 16:45 22.13630 80.65979 38805 ft 520 kts 114°
2026-05-04 16:46 22.07149 80.84175 38807 ft 521 kts 114°
2026-05-04 16:47 22.01941 80.98749 38808 ft 521 kts 114°
2026-05-04 16:48 21.96733 81.13276 38812 ft 520 kts 114°
2026-05-04 16:49 21.91497 81.27836 38801 ft 520 kts 114°
2026-05-04 16:50 21.86266 81.42337 38805 ft 519 kts 114°
2026-05-04 16:51 21.82350 81.53160 38807 ft 519 kts 114°
2026-05-04 16:52 21.77155 81.67684 38814 ft 520 kts 111°
2026-05-04 16:53 21.74037 81.78843 38827 ft 521 kts 111°
2026-05-04 16:53 21.70956 81.90064 39174 ft 520 kts 109°
2026-05-04 16:54 21.69906 81.93780 39317 ft 519 kts 110°
2026-05-04 16:55 21.65589 82.08578 39856 ft 517 kts 110°
2026-05-04 16:55 21.63438 82.15950 40102 ft 516 kts 110°
2026-05-04 16:56 21.61312 82.23257 40340 ft 514 kts 110°
2026-05-04 16:56 21.58111 82.34249 40651 ft 513 kts 110°
2026-05-04 16:57 21.54907 82.45222 40809 ft 512 kts 110°
2026-05-04 16:58 21.50636 82.59800 40819 ft 511 kts 110°
2026-05-04 17:00 21.43261 82.81131 40820 ft 508 kts 116°
2026-05-04 17:01 21.36403 82.98590 40822 ft 508 kts 115°
2026-05-04 17:02 21.31024 83.12561 40831 ft 508 kts 115°
2026-05-04 17:03 21.26959 83.23075 40835 ft 509 kts 115°
2026-05-04 17:03 21.22884 83.33592 40835 ft 506 kts 115°
2026-05-04 17:04 21.17555 83.47322 40847 ft 477 kts 115°
2026-05-04 17:05 21.15103 83.53636 40864 ft 446 kts 115°
2026-05-04 17:05 21.12671 83.59604 40841 ft 429 kts 121°
2026-05-04 17:06 21.09047 83.68325 40839 ft 426 kts 119°
2026-05-04 17:07 21.06382 83.75169 40847 ft 425 kts 114°
2026-05-04 17:07 21.03542 83.83030 40836 ft 425 kts 114°
2026-05-04 17:08 21.00574 83.90806 40835 ft 424 kts 115°
2026-05-04 17:09 20.98291 83.96617 40832 ft 423 kts 116°
2026-05-04 17:09 20.95998 84.02432 40844 ft 423 kts 116°
2026-05-04 17:10 20.90315 84.16860 40841 ft 421 kts 116°
2026-05-04 17:11 20.88039 84.22630 40843 ft 420 kts 116°
2026-05-04 17:12 20.84644 84.31255 40712 ft 423 kts 113°
2026-05-04 17:12 20.82416 84.37294 39314 ft 452 kts 110°
2026-05-04 17:13 20.78793 84.46934 38844 ft 471 kts 111°
2026-05-04 17:14 20.73372 84.59830 38850 ft 485 kts 116°
2026-05-04 17:15 20.69280 84.69884 38862 ft 498 kts 115°
2026-05-04 17:16 20.63901 84.83753 38864 ft 512 kts 113°
2026-05-04 17:17 20.58328 84.97876 38871 ft 519 kts 114°
2026-05-04 17:18 20.52661 85.11984 38866 ft 519 kts 114°
2026-05-04 17:19 20.46948 85.26183 38863 ft 519 kts 114°
2026-05-04 17:20 20.41260 85.40285 38865 ft 519 kts 114°
2026-05-04 17:20 20.36975 85.50882 38859 ft 519 kts 114°
2026-05-04 17:21 20.31172 85.64966 38857 ft 518 kts 116°
2026-05-04 17:22 20.28251 85.71940 38851 ft 518 kts 116°
2026-05-04 17:23 20.23270 85.82083 38825 ft 512 kts 135°
2026-05-04 17:23 20.20867 85.84845 38827 ft 506 kts 142°
2026-05-04 17:24 20.13057 85.92489 38850 ft 510 kts 143°
2026-05-04 17:25 20.02694 86.02733 38859 ft 510 kts 145°
2026-05-04 17:26 19.92501 86.13305 38865 ft 511 kts 142°
2026-05-04 17:27 19.80193 86.26891 38867 ft 511 kts 137°
2026-05-04 17:28 19.70106 86.37561 38876 ft 511 kts 138°
2026-05-04 17:29 19.54937 86.53438 38875 ft 511 kts 138°
2026-05-04 17:31 19.42229 86.66615 38877 ft 511 kts 138°
2026-05-04 17:32 19.29588 86.79719 38882 ft 509 kts 138°
2026-05-04 17:33 19.19446 86.90209 38886 ft 509 kts 138°
2026-05-04 17:34 19.09312 87.00672 38875 ft 510 kts 138°
2026-05-04 17:35 18.96654 87.13715 38887 ft 509 kts 138°
2026-05-04 17:36 18.91569 87.18946 38884 ft 509 kts 138°
2026-05-04 17:36 18.86530 87.24127 38890 ft 499 kts 138°
2026-05-04 17:37 18.81554 87.29240 38891 ft 505 kts 136°
2026-05-04 17:37 18.76625 87.34591 38882 ft 509 kts 130°
2026-05-04 17:38 18.71765 87.40055 38885 ft 510 kts 131°
2026-05-04 17:38 18.66784 87.45382 38887 ft 511 kts 133°
2026-05-04 17:39 18.59298 87.53304 38898 ft 506 kts 138°
2026-05-04 17:39 18.53972 87.58216 38807 ft 510 kts 141°
2026-05-04 17:40 18.48638 87.63169 39044 ft 509 kts 140°
2026-05-04 17:40 18.46037 87.65681 39255 ft 508 kts 139°
2026-05-04 17:40 18.43464 87.68223 39425 ft 507 kts 139°
2026-05-04 17:41 18.40908 87.70792 39590 ft 505 kts 138°
2026-05-04 17:41 18.38385 87.73351 39782 ft 503 kts 138°
2026-05-04 17:41 18.35871 87.75911 39943 ft 502 kts 138°
2026-05-04 17:41 18.33371 87.78460 40072 ft 501 kts 138°
2026-05-04 17:42 18.30866 87.81013 40192 ft 501 kts 138°
2026-05-04 17:42 18.28357 87.83569 40317 ft 501 kts 138°
2026-05-04 17:42 18.25860 87.86132 40428 ft 500 kts 137°
2026-05-04 17:42 18.23412 87.88671 40544 ft 500 kts 137°
2026-05-04 17:43 18.20946 87.91238 40649 ft 499 kts 137°
2026-05-04 17:43 18.18468 87.93818 40762 ft 499 kts 137°
2026-05-04 17:43 18.16001 87.96382 40865 ft 499 kts 137°
2026-05-04 17:43 18.13526 87.98950 40891 ft 499 kts 137°
2026-05-04 17:44 18.08573 88.04080 40892 ft 498 kts 137°
2026-05-04 17:44 18.03641 88.09181 40892 ft 497 kts 137°
2026-05-04 17:45 17.98734 88.14251 40888 ft 497 kts 137°
2026-05-04 17:45 17.93799 88.19347 40889 ft 497 kts 137°
2026-05-04 17:46 17.88872 88.24431 40888 ft 497 kts 137°
2026-05-04 17:46 17.83915 88.29540 40893 ft 497 kts 137°
2026-05-04 17:47 17.79008 88.34595 40891 ft 497 kts 137°
2026-05-04 17:47 17.74070 88.39676 40892 ft 497 kts 137°
2026-05-04 17:48 17.69138 88.44748 40894 ft 497 kts 137°
2026-05-04 17:48 17.64194 88.49828 40897 ft 498 kts 137°
2026-05-04 17:49 17.59234 88.54920 40894 ft 498 kts 137°
2026-05-04 17:49 17.54292 88.59991 40896 ft 498 kts 137°
2026-05-04 17:50 17.49338 88.65068 40894 ft 498 kts 137°
2026-05-04 17:50 17.44372 88.70154 40898 ft 498 kts 137°
2026-05-04 17:51 17.39416 88.75226 40895 ft 498 kts 137°
2026-05-04 17:51 17.34493 88.80259 40894 ft 498 kts 137°
2026-05-04 17:52 17.29535 88.85325 40896 ft 498 kts 137°
2026-05-04 17:52 17.24558 88.90406 40896 ft 497 kts 137°
2026-05-04 17:53 17.19604 88.95460 40900 ft 497 kts 137°
2026-05-04 17:53 17.14678 89.00537 40901 ft 497 kts 137°
2026-05-04 17:54 17.10598 89.04786 40898 ft 497 kts 136°
2026-05-04 17:54 17.04890 89.10720 40897 ft 497 kts 137°
2026-05-04 17:55 17.00796 89.14963 40898 ft 497 kts 136°
2026-05-04 17:55 16.95873 89.20058 40899 ft 497 kts 136°
2026-05-04 17:56 16.90956 89.25143 40897 ft 497 kts 136°
2026-05-04 17:56 16.86039 89.30224 40897 ft 497 kts 136°
2026-05-04 17:57 16.81137 89.35284 40897 ft 496 kts 136°
2026-05-04 17:57 16.76223 89.40354 40898 ft 496 kts 136°
2026-05-04 17:58 16.71326 89.45403 40897 ft 496 kts 137°
2026-05-04 17:58 16.66404 89.50474 40895 ft 496 kts 136°
2026-05-04 17:59 16.61520 89.55502 40899 ft 495 kts 136°
2026-05-04 18:00 16.54159 89.63072 40897 ft 495 kts 137°
2026-05-04 18:00 16.49249 89.68117 40899 ft 495 kts 137°
2026-05-04 18:01 16.44342 89.73155 40900 ft 495 kts 136°
2026-05-04 18:01 16.39432 89.78193 40897 ft 495 kts 137°
2026-05-04 18:02 16.32083 89.85725 40896 ft 495 kts 136°
2026-05-04 18:02 16.27172 89.90758 40897 ft 495 kts 136°
2026-05-04 18:03 16.22264 89.95782 40896 ft 495 kts 136°
2026-05-04 18:03 16.17346 90.00810 40895 ft 495 kts 136°
2026-05-04 18:04 16.12459 90.05804 40894 ft 495 kts 136°
2026-05-04 18:05 16.05073 90.13343 40894 ft 495 kts 136°
2026-05-04 18:05 16.00151 90.18372 40893 ft 495 kts 136°
2026-05-04 18:06 15.92884 90.25995 40896 ft 495 kts 136°
2026-05-04 18:06 15.88072 90.31059 40902 ft 495 kts 136°
2026-05-04 18:07 15.83230 90.36136 40900 ft 495 kts 136°
2026-05-04 18:07 15.78372 90.41214 40900 ft 494 kts 136°
2026-05-04 18:08 15.73522 90.46288 40898 ft 494 kts 136°
2026-05-04 18:08 15.68681 90.51338 40899 ft 494 kts 136°
2026-05-04 18:09 15.58990 90.61450 40913 ft 494 kts 136°
2026-05-04 18:10 15.54174 90.66468 40896 ft 494 kts 136°
2026-05-04 18:10 15.49329 90.71514 40894 ft 494 kts 136°
2026-05-04 18:11 15.44479 90.76561 40894 ft 494 kts 136°
2026-05-04 18:11 15.39629 90.81605 40908 ft 494 kts 136°
2026-05-04 18:12 15.34778 90.86647 40896 ft 494 kts 136°
2026-05-04 18:12 15.29923 90.91688 40897 ft 494 kts 136°
2026-05-04 18:13 15.25071 90.96724 40899 ft 493 kts 136°
2026-05-04 18:14 15.17791 91.04272 40893 ft 494 kts 136°
2026-05-04 18:14 15.12964 91.09273 40911 ft 494 kts 136°
2026-05-04 18:15 15.03271 91.19304 40894 ft 494 kts 136°
2026-05-04 18:16 14.98375 91.24366 40891 ft 494 kts 136°
2026-05-04 18:16 14.93546 91.29357 40897 ft 494 kts 136°
2026-05-04 18:17 14.86241 91.36898 40906 ft 495 kts 136°
2026-05-04 18:18 14.78910 91.44457 40896 ft 496 kts 136°
2026-05-04 18:18 14.74062 91.49453 40909 ft 495 kts 136°
2026-05-04 18:19 14.66729 91.57002 40909 ft 496 kts 137°
2026-05-04 18:19 14.61843 91.62027 40907 ft 496 kts 137°
2026-05-04 18:20 14.56957 91.67050 40888 ft 496 kts 137°
2026-05-04 18:20 14.52063 91.72078 40901 ft 496 kts 137°
2026-05-04 18:21 14.47197 91.77074 40903 ft 496 kts 137°
2026-05-04 18:21 14.42310 91.82088 40888 ft 496 kts 137°
2026-05-04 18:22 14.37396 91.87126 40888 ft 496 kts 137°
2026-05-04 18:22 14.32506 91.92137 40903 ft 496 kts 137°
2026-05-04 18:23 14.27606 91.97155 40907 ft 496 kts 137°
2026-05-04 18:23 14.22727 92.02173 40902 ft 496 kts 136°
2026-05-04 18:24 14.17936 92.07231 40898 ft 496 kts 135°
2026-05-04 18:24 14.13131 92.12324 40895 ft 495 kts 135°
2026-05-04 18:25 14.08308 92.17413 40900 ft 495 kts 135°
2026-05-04 18:25 14.03496 92.22478 40900 ft 495 kts 135°
2026-05-04 18:26 13.98663 92.27559 40898 ft 495 kts 136°
2026-05-04 18:26 13.93868 92.32597 40894 ft 496 kts 136°
2026-05-04 18:27 13.88993 92.37614 40895 ft 496 kts 137°
2026-05-04 18:27 13.84021 92.42545 40890 ft 496 kts 137°
2026-05-04 18:28 13.79063 92.47466 40894 ft 495 kts 137°
2026-05-04 18:28 13.74113 92.52407 40894 ft 495 kts 137°
2026-05-04 18:29 13.69202 92.57320 40894 ft 495 kts 137°
2026-05-04 18:29 13.64259 92.62265 40895 ft 495 kts 137°
2026-05-04 18:30 13.56850 92.69669 40896 ft 495 kts 137°
2026-05-04 18:31 13.51905 92.74606 40893 ft 496 kts 137°
2026-05-04 18:31 13.46942 92.79558 40897 ft 496 kts 137°
2026-05-04 18:32 13.42020 92.84465 40891 ft 496 kts 137°
2026-05-04 18:32 13.37058 92.89409 40893 ft 496 kts 137°
2026-05-04 18:33 13.32105 92.94343 40891 ft 496 kts 137°
2026-05-04 18:33 13.27170 92.99255 40892 ft 496 kts 137°
2026-05-04 18:34 13.22211 93.04188 40887 ft 496 kts 137°
2026-05-04 18:34 13.17251 93.09118 40886 ft 496 kts 137°
2026-05-04 18:35 13.12323 93.14014 40889 ft 496 kts 137°
2026-05-04 18:35 13.07357 93.18946 40889 ft 496 kts 137°
2026-05-04 18:36 13.02391 93.23874 40895 ft 496 kts 137°
2026-05-04 18:36 12.97429 93.28795 40892 ft 496 kts 137°
2026-05-04 18:37 12.92467 93.33715 40887 ft 496 kts 137°
2026-05-04 18:37 12.87542 93.38593 40891 ft 496 kts 137°
2026-05-04 18:38 12.82576 93.43509 40882 ft 496 kts 137°
2026-05-04 18:38 12.77614 93.48418 40887 ft 496 kts 137°
2026-05-04 18:39 12.72632 93.53344 40883 ft 500 kts 137°
2026-05-04 18:39 12.67601 93.58317 40882 ft 503 kts 137°
2026-05-04 18:40 12.62540 93.63315 40887 ft 506 kts 137°
2026-05-04 18:40 12.57496 93.68295 40888 ft 507 kts 137°
2026-05-04 18:41 12.52433 93.73291 40885 ft 507 kts 137°
2026-05-04 18:41 12.47351 93.78303 40888 ft 507 kts 137°
2026-05-04 18:42 12.42308 93.83276 40886 ft 507 kts 137°
2026-05-04 18:42 12.37226 93.88280 40884 ft 507 kts 137°
2026-05-04 18:43 12.32133 93.93291 40884 ft 507 kts 137°
2026-05-04 18:43 12.27062 93.98280 40883 ft 507 kts 137°
2026-05-04 18:44 12.22839 94.02433 40887 ft 507 kts 137°
2026-05-04 18:44 12.17772 94.07442 40885 ft 507 kts 136°
2026-05-04 18:45 12.12705 94.12490 40879 ft 507 kts 136°
2026-05-04 18:45 12.07664 94.17510 40881 ft 507 kts 136°
2026-05-04 18:46 12.02607 94.22532 40884 ft 507 kts 136°
2026-05-04 18:46 11.97543 94.27551 40883 ft 506 kts 136°
2026-05-04 18:47 11.92523 94.32535 40884 ft 506 kts 136°
2026-05-04 18:47 11.87472 94.37547 40883 ft 506 kts 136°
2026-05-04 18:48 11.82418 94.42564 40882 ft 506 kts 136°
2026-05-04 18:48 11.77702 94.47903 40882 ft 506 kts 130°
2026-05-04 18:49 11.73209 94.53400 40884 ft 506 kts 130°
2026-05-04 18:49 11.68655 94.58881 40878 ft 506 kts 131°
2026-05-04 18:50 11.64037 94.64329 40878 ft 506 kts 131°
2026-05-04 18:50 11.59412 94.69748 40864 ft 506 kts 131°
2026-05-04 18:51 11.54785 94.75164 40881 ft 506 kts 131°
2026-05-04 18:51 11.50162 94.80578 40880 ft 506 kts 131°
2026-05-04 18:52 11.45525 94.86007 40881 ft 506 kts 131°
2026-05-04 18:52 11.40924 94.91393 40882 ft 506 kts 131°
2026-05-04 18:53 11.36294 94.96809 40881 ft 506 kts 131°
2026-05-04 18:53 11.31665 95.02220 40868 ft 506 kts 131°
2026-05-04 18:54 11.27040 95.07625 40885 ft 506 kts 131°
2026-05-04 18:54 11.22411 95.13025 40881 ft 504 kts 131°
2026-05-04 18:55 11.17803 95.18404 40885 ft 504 kts 131°
2026-05-04 18:55 11.10883 95.26472 40883 ft 503 kts 131°
2026-05-04 18:56 11.06295 95.31810 40864 ft 504 kts 131°
2026-05-04 18:56 11.01676 95.37188 40882 ft 504 kts 131°
2026-05-04 18:57 10.97057 95.42567 40879 ft 504 kts 131°
2026-05-04 18:57 10.92433 95.47949 40884 ft 505 kts 131°
2026-05-04 18:58 10.87836 95.53297 40866 ft 504 kts 131°
2026-05-04 18:58 10.83211 95.58667 40880 ft 502 kts 130°
2026-05-04 18:59 10.78623 95.64002 40883 ft 501 kts 130°
2026-05-04 18:59 10.74066 95.69298 40887 ft 500 kts 130°
2026-05-04 19:00 10.69448 95.74660 40883 ft 500 kts 130°
2026-05-04 19:00 10.64863 95.79981 40886 ft 500 kts 131°
2026-05-04 19:01 10.60316 95.85254 40887 ft 499 kts 131°
2026-05-04 19:01 10.55733 95.90567 40885 ft 500 kts 131°
2026-05-04 19:02 10.51142 95.95886 40884 ft 499 kts 131°
2026-05-04 19:02 10.46567 96.01184 40866 ft 498 kts 130°
2026-05-04 19:03 10.41998 96.06472 40884 ft 497 kts 130°
2026-05-04 19:03 10.37466 96.11716 40889 ft 498 kts 131°
2026-05-04 19:04 10.32890 96.17007 40887 ft 499 kts 131°
2026-05-04 19:04 10.28300 96.22310 40869 ft 499 kts 131°
2026-05-04 19:05 10.23713 96.27610 40873 ft 499 kts 131°
2026-05-04 19:05 10.19121 96.32914 40890 ft 499 kts 131°
2026-05-04 19:06 10.14540 96.38203 40889 ft 499 kts 131°
2026-05-04 19:06 10.09952 96.43494 40890 ft 498 kts 130°
2026-05-04 19:07 10.05411 96.48729 40889 ft 497 kts 131°
2026-05-04 19:07 10.00834 96.53988 40870 ft 497 kts 132°
2026-05-04 19:08 9.95865 96.58873 40889 ft 498 kts 136°
2026-05-04 19:08 9.90790 96.63660 40887 ft 498 kts 137°
2026-05-04 19:09 9.85696 96.68429 40873 ft 498 kts 137°
2026-05-04 19:09 9.80646 96.73159 40871 ft 489 kts 137°
2026-05-04 19:10 9.75663 96.77834 40873 ft 486 kts 136°
2026-05-04 19:10 9.70739 96.82456 40872 ft 484 kts 137°
2026-05-04 19:11 9.65794 96.87095 40861 ft 486 kts 137°
2026-05-04 19:11 9.63320 96.89415 40338 ft 485 kts 137°
2026-05-04 19:11 9.60832 96.91747 39578 ft 487 kts 137°
2026-05-04 19:12 9.58338 96.94085 38888 ft 489 kts 137°
2026-05-04 19:12 9.53338 96.98769 37485 ft 490 kts 137°
2026-05-04 19:12 9.50831 97.01117 36821 ft 489 kts 137°
2026-05-04 19:13 9.48335 97.03453 36156 ft 489 kts 137°
2026-05-04 19:13 9.45832 97.05796 35451 ft 490 kts 137°
2026-05-04 19:13 9.43314 97.08152 34727 ft 492 kts 137°
2026-05-04 19:13 9.40796 97.10509 34206 ft 497 kts 136°
2026-05-04 19:14 9.38237 97.12903 33840 ft 503 kts 137°
2026-05-04 19:14 9.35659 97.15316 33358 ft 505 kts 137°
2026-05-04 19:14 9.33073 97.17735 32851 ft 506 kts 137°
2026-05-04 19:14 9.30490 97.20150 32366 ft 507 kts 137°
2026-05-04 19:15 9.27923 97.22548 31888 ft 509 kts 136°
2026-05-04 19:15 9.25317 97.24983 31413 ft 510 kts 136°
2026-05-04 19:15 9.22705 97.27424 30939 ft 511 kts 136°
2026-05-04 19:15 9.20084 97.29874 30475 ft 513 kts 136°
2026-05-04 19:16 9.17461 97.32325 30026 ft 514 kts 136°
2026-05-04 19:16 9.14827 97.34786 29495 ft 515 kts 136°
2026-05-04 19:16 9.12200 97.37240 28991 ft 514 kts 136°
2026-05-04 19:16 9.09577 97.39689 28460 ft 510 kts 136°
2026-05-04 19:17 9.06977 97.42116 27966 ft 506 kts 136°
2026-05-04 19:17 9.04430 97.44493 27480 ft 501 kts 136°
2026-05-04 19:17 9.01878 97.46873 26994 ft 496 kts 136°
2026-05-04 19:17 8.99355 97.49224 26544 ft 491 kts 136°
2026-05-04 19:18 8.96838 97.51567 25742 ft 490 kts 137°
2026-05-04 19:18 8.94346 97.53887 24722 ft 480 kts 137°
2026-05-04 19:18 8.91910 97.56157 23453 ft 474 kts 137°
2026-05-04 19:18 8.89529 97.58375 22046 ft 466 kts 136°
2026-05-04 19:19 8.87135 97.60613 20666 ft 458 kts 136°
2026-05-04 19:19 8.84854 97.62746 19433 ft 450 kts 136°
2026-05-04 19:19 8.82568 97.64878 18236 ft 441 kts 136°
2026-05-04 19:19 8.80330 97.66952 16872 ft 432 kts 136°
2026-05-04 19:20 8.78138 97.68984 15629 ft 424 kts 136°
2026-05-04 19:20 8.76013 97.70952 14918 ft 403 kts 136°
2026-05-04 19:20 8.73999 97.72817 14353 ft 383 kts 136°
2026-05-04 19:20 8.72078 97.74597 13777 ft 368 kts 136°
2026-05-04 19:21 8.70189 97.76349 13150 ft 370 kts 136°
2026-05-04 19:21 8.68282 97.78118 12540 ft 370 kts 136°
2026-05-04 19:21 8.66390 97.79872 12040 ft 368 kts 136°
2026-05-04 19:21 8.64514 97.81611 11494 ft 364 kts 136°
2026-05-04 19:22 8.62642 97.83345 11041 ft 363 kts 136°
2026-05-04 19:22 8.60847 97.85007 10919 ft 346 kts 136°
2026-05-04 19:22 8.59109 97.86615 10820 ft 329 kts 136°
2026-05-04 19:22 8.57456 97.88144 10668 ft 316 kts 136°
2026-05-04 19:23 8.55866 97.89617 10456 ft 304 kts 136°
2026-05-04 19:23 8.54341 97.91029 9979 ft 292 kts 136°
2026-05-04 19:23 8.52847 97.92413 9235 ft 289 kts 136°
2026-05-04 19:23 8.51377 97.93775 8555 ft 284 kts 136°
2026-05-04 19:24 8.49933 97.95112 7878 ft 280 kts 136°
2026-05-04 19:24 8.48406 97.96283 7178 ft 279 kts 150°
2026-05-04 19:24 8.46580 97.96902 6524 ft 277 kts 167°
2026-05-04 19:24 8.44684 97.97241 5852 ft 274 kts 168°
2026-05-04 19:25 8.42815 97.97554 5154 ft 272 kts 168°
2026-05-04 19:25 8.40945 97.97872 4489 ft 270 kts 168°
2026-05-04 19:25 8.39115 97.98187 4091 ft 259 kts 168°
2026-05-04 19:25 8.37394 97.98486 3999 ft 245 kts 168°
2026-05-04 19:26 8.35703 97.98765 3988 ft 247 kts 169°
2026-05-04 19:26 8.34006 97.99018 3983 ft 246 kts 169°
2026-05-04 19:26 8.32326 97.99266 3979 ft 246 kts 169°
2026-05-04 19:26 8.30627 97.99520 3985 ft 247 kts 169°
2026-05-04 19:27 8.28930 97.99773 3981 ft 247 kts 169°
2026-05-04 19:27 8.27224 98.00025 3984 ft 248 kts 169°
2026-05-04 19:27 8.25512 98.00280 3986 ft 248 kts 169°
2026-05-04 19:27 8.23806 98.00535 3980 ft 248 kts 169°
2026-05-04 19:28 8.22106 98.00849 3988 ft 246 kts 163°
2026-05-04 19:28 8.20521 98.01326 3986 ft 228 kts 160°
2026-05-04 19:28 8.19059 98.01804 3996 ft 214 kts 160°
2026-05-04 19:28 8.17659 98.02277 4010 ft 212 kts 158°
2026-05-04 19:29 8.16304 98.02829 4000 ft 213 kts 155°
2026-05-04 19:29 8.14917 98.03429 3990 ft 214 kts 154°
2026-05-04 19:29 8.13562 98.04018 3988 ft 214 kts 154°
2026-05-04 19:29 8.12195 98.04612 3989 ft 214 kts 154°
2026-05-04 19:30 8.11320 98.05072 3987 ft 213 kts 145°
2026-05-04 19:30 8.10012 98.06489 3988 ft 204 kts 118°
2026-05-04 19:30 8.09579 98.07339 3987 ft 199 kts 113°
2026-05-04 19:30 8.09221 98.08678 3956 ft 198 kts 95°
2026-05-04 19:31 8.09246 98.10034 3802 ft 189 kts 85°
2026-05-04 19:31 8.09374 98.11315 3544 ft 184 kts 84°
2026-05-04 19:31 8.09503 98.12587 3278 ft 181 kts 84°
2026-05-04 19:31 8.09630 98.13857 3027 ft 184 kts 84°
2026-05-04 19:32 8.09758 98.15159 2783 ft 186 kts 85°
2026-05-04 19:32 8.09880 98.16455 2557 ft 185 kts 85°
2026-05-04 19:32 8.10003 98.17744 2333 ft 184 kts 84°
2026-05-04 19:32 8.10124 98.18998 2093 ft 175 kts 85°
2026-05-04 19:33 8.10239 98.20212 1898 ft 172 kts 85°
2026-05-04 19:33 8.10349 98.21385 1683 ft 165 kts 85°
2026-05-04 19:33 8.10456 98.22531 1481 ft 164 kts 85°
2026-05-04 19:33 8.10564 98.23670 1286 ft 163 kts 84°
2026-05-04 19:34 8.10670 98.24791 1070 ft 155 kts 85°
2026-05-04 19:34 8.10769 98.25835 890 ft 145 kts 84°
2026-05-04 19:34 8.10863 98.26818 654 ft 138 kts 85°
2026-05-04 19:34 8.10958 98.27764 478 ft 136 kts 84°
2026-05-04 19:35 8.11049 98.28720 325 ft 137 kts 85°
2026-05-04 19:35 8.11136 98.29682 201 ft 138 kts 86°
2026-05-04 19:35 8.11220 98.30639 37 ft 133 kts 80°
2026-05-04 19:35 8.11301 98.31455 42 ft 89 kts 85°
2026-05-04 19:36 8.11331 98.31774 55 ft 8 kts 84°
2026-05-04 19:36 8.11348 98.31988 57 ft 50 kts 85°
2026-05-04 19:36 8.11368 98.32266 77 ft 32 kts 93°
2026-05-04 19:36 8.11301 98.32452 88 ft 19 kts 143°
2026-05-04 19:37 8.11258 98.32415 85 ft 10 kts 261°
2026-05-04 19:37 8.11245 98.32329 84 ft 15 kts 261°
2026-05-04 19:37 8.11238 98.32206 72 ft 20 kts 264°
2026-05-04 19:37 8.11220 98.32046 67 ft 26 kts 264°
2026-05-04 19:38 8.11204 98.31876 53 ft 18 kts 265°
2026-05-04 19:38 8.11191 98.31734 52 ft 23 kts 265°
2026-05-04 19:38 8.11175 98.31552 44 ft 28 kts 264°
2026-05-04 19:38 8.11154 98.31341 39 ft 32 kts 265°
2026-05-04 19:39 8.11132 98.31107 36 ft 34 kts 264°
2026-05-04 19:39 8.11083 98.30891 35 ft 29 kts 262°
2026-05-04 19:39 8.11064 98.30684 34 ft 31 kts 264°
2026-05-04 19:39 8.11027 98.30486 33 ft 25 kts 222°
2026-05-04 19:40 8.10893 98.30450 33 ft 20 kts 190°
2026-05-04 19:40 8.10855 98.30478 33 ft 5 kts 102°
2026-05-04 19:40 8.10846 98.30516 34 ft 4 kts 105°
2026-05-04 19:40 8.10844 98.30524 34 ft 0 kts 104°